DW9234 Weather Reports


Display with metric or nautical units.
time (UTC)temp
F
wind
direction
speed
MPH
gust
MPH
rain 1hr
in
rain 24hr
in
rain mn
in
humidity
%
barometer
mb
20200712153946 85 210 1.0 3.0 0.00 0.00 0.00 51 1010.2
20200712152945 84 224 1.0 2.0 0.00 0.00 0.00 45 1010.3
20200712151945 84 281 1.0 5.0 0.00 0.00 0.00 51 1010.3
20200712150945 84 85 4.0 4.0 0.00 0.00 0.00 60 1010.5
20200712145945 84 335 1.0 4.0 0.00 0.00 0.00 54 1010.4
20200712144945 83 296 1.0 2.0 0.00 0.00 0.00 53 1010.5
20200712143945 82 63 1.0 4.0 0.00 0.00 0.00 58 1010.5
20200712142945 82 217 1.0 5.0 0.00 0.00 0.00 57 1010.5
20200712141946 81 340 0.0 2.0 0.00 0.00 0.00 60 1010.6
20200712140945 81 336 0.0 2.0 0.00 0.00 0.00 62 1010.6
20200712135946 80 290 2.0 5.0 0.00 0.00 0.00 65 1010.5
20200712134945 80 237 1.0 5.0 0.00 0.00 0.00 64 1010.4
20200712133945 79 277 0.0 4.0 0.00 0.00 0.00 64 1010.4
20200712132947 78 121 0.0 4.0 0.00 0.00 0.00 64 1010.6
20200712131945 77 245 0.0 2.0 0.00 0.00 0.00 66 1010.6
20200712130945 77 251 0.0 1.0 0.00 0.00 0.00 67 1010.4
20200712125946 77 237 1.0 4.0 0.00 0.00 0.00 68 1010.3
20200712124945 76 211 2.0 2.0 0.00 0.00 0.00 69 1010.3
20200712123946 76 253 0.0 4.0 0.00 0.00 0.00 69 1010.2
20200712122946 75 263 0.0 2.0 0.00 0.00 0.00 72 1010.2
20200712121945 74 198 0.0 2.0 0.00 0.00 0.00 72 1010.1
20200712120947 73 81 2.0 3.0 0.00 0.00 0.00 75 1010.0
20200712115946 73 327 1.0 2.0 0.00 0.00 0.00 74 1010.0
20200712114945 72 246 0.0 1.0 0.00 0.00 0.00 76 1009.9
20200712113945 71 247 0.0 1.0 0.00 0.00 0.00 76 1009.8
20200712112945 71 247 1.0 1.0 0.00 0.00 0.00 78 1009.8
20200712111946 70 247 0.0 2.0 0.00 0.00 0.00 78 1009.9
20200712110946 70 247 0.0 2.0 0.00 0.00 0.00 79 1009.9
20200712105946 70 247 0.0 0.0 0.00 0.00 0.00 79 1009.8
20200712104946 69 247 0.0 0.0 0.00 0.00 0.00 79 1009.7
20200712103946 69 247 0.0 0.0 0.00 0.00 0.00 79 1009.6
20200712102946 69 247 0.0 0.0 0.00 0.00 0.00 78 1009.4
20200712101946 69 247 0.0 0.0 0.00 0.00 0.00 79 1009.2
20200712100946 69 247 0.0 1.0 0.00 0.00 0.00 78 1009.0
20200712095947 69 247 0.0 1.0 0.00 0.00 0.00 78 1009.0
20200712094946 69 247 0.0 1.0 0.00 0.00 0.00 79 1008.9
20200712093946 69 247 0.0 1.0 0.00 0.00 0.00 78 1008.8
20200712092946 70 247 1.0 2.0 0.00 0.00 0.00 78 1008.7
20200712091947 70 239 0.0 2.0 0.00 0.00 0.00 78 1008.6
20200712090948 70 205 1.0 2.0 0.00 0.00 0.00 79 1008.5
20200712085947 70 209 0.0 5.0 0.00 0.00 0.00 78 1008.5
20200712084947 70 252 1.0 2.0 0.00 0.00 0.00 79 1008.5
20200712083950 70 252 1.0 1.0 0.00 0.00 0.00 79 1008.3
20200712082946 70 252 0.0 1.0 0.00 0.00 0.00 78 1008.3
20200712081946 70 252 0.0 1.0 0.00 0.00 0.00 78 1008.3
20200712080946 71 252 0.0 1.0 0.00 0.00 0.00 77 1008.5
20200712075948 71 252 0.0 1.0 0.00 0.00 0.00 77 1008.5
20200712074946 72 252 0.0 1.0 0.00 0.00 0.00 76 1008.6
20200712073946 72 252 0.0 1.0 0.00 0.00 0.00 76 1008.5
20200712072946 72 252 0.0 2.0 0.00 0.00 0.00 76 1008.5
20200712071947 72 252 0.0 1.0 0.00 0.00 0.00 77 1008.5
20200712070946 72 251 0.0 0.0 0.00 0.00 0.00 76 1008.6
20200712065946 72 251 1.0 2.0 0.00 0.00 0.00 76 1008.6
20200712064946 72 293 1.0 2.0 0.00 0.00 0.00 76 1008.8
20200712063947 72 164 1.0 2.0 0.00 0.00 0.00 75 1008.8
20200712062946 73 187 0.0 2.0 0.00 0.00 0.00 75 1008.9
20200712061946 72 116 1.0 1.0 0.00 0.00 0.00 75 1008.8
20200712060946 73 116 0.0 0.0 0.00 0.00 0.00 75 1008.8
20200712055946 73 116 0.0 1.0 0.00 0.00 0.00 75 1008.7
20200712054946 73 116 0.0 2.0 0.00 0.00 0.00 74 1008.9
20200712053948 73 116 1.0 2.0 0.00 0.00 0.00 75 1009.0
20200712052947 74 116 0.0 1.0 0.00 0.00 0.00 74 1009.0
20200712051947 74 116 0.0 1.0 0.00 0.00 0.00 72 1009.1
20200712050946 75 116 1.0 2.0 0.00 0.00 0.00 73 1009.1
20200712045946 75 123 0.0 2.0 0.00 0.00 0.00 71 1009.2
20200712044948 75 132 0.0 2.0 0.00 0.00 0.00 73 1009.0
20200712043946 75 175 1.0 2.0 0.00 0.00 0.00 72 1008.9
20200712042947 75 285 1.0 2.0 0.00 0.00 0.00 75 1008.9
20200712041946 74 285 0.0 2.0 0.00 0.00 0.00 75 1009.0
20200712040946 75 285 0.0 0.0 0.00 0.00 0.00 75 1009.0
20200712035947 75 285 0.0 1.0 0.00 0.00 0.00 74 1008.9
20200712034947 76 285 0.0 2.0 0.00 0.00 0.00 72 1008.9
20200712033947 76 285 0.0 2.0 0.00 0.00 0.00 73 1009.0
20200712032948 77 285 1.0 2.0 0.00 0.00 0.00 72 1008.9
20200712031947 77 314 0.0 2.0 0.00 0.00 0.00 71 1009.1
20200712030947 78 193 0.0 2.0 0.00 0.00 0.00 68 1009.0
20200712025947 78 199 0.0 2.0 0.00 0.00 0.00 67 1009.1
20200712024947 79 213 0.0 4.0 0.00 0.00 0.00 65 1009.0
20200712023947 79 247 0.0 6.0 0.00 0.00 0.00 65 1009.0
20200712022947 79 279 1.0 4.0 0.00 0.00 0.00 65 1008.9
20200712021947 80 157 2.0 9.0 0.00 0.00 0.00 65 1008.6
20200712020948 80 237 2.0 7.0 0.00 0.00 0.00 65 1008.5
20200712015947 80 268 0.0 3.0 0.00 0.00 0.00 66 1008.3
20200712014948 79 224 1.0 4.0 0.00 0.00 0.00 66 1008.5
20200712013947 79 228 0.0 2.0 0.00 0.00 0.00 69 1008.4
20200712012947 78 229 0.0 5.0 0.00 0.00 0.00 69 1008.2
20200712011947 79 242 0.0 1.0 0.00 0.00 0.00 69 1008.0
20200712010947 80 242 0.0 5.0 0.00 0.00 0.00 67 1007.8
20200712005947 80 219 1.0 5.0 0.00 0.00 0.00 63 1007.7
20200712004948 81 273 0.0 4.0 0.00 0.00 0.00 63 1007.7
20200712003949 81 185 1.0 2.0 0.00 0.00 0.00 64 1007.5
20200712002947 80 188 0.0 4.0 0.00 0.00 0.00 68 1007.5
20200712001947 81 228 0.0 2.0 0.00 0.00 0.00 65 1007.3
20200712000947 81 184 0.0 2.0 0.00 0.00 0.00 67 1007.2
20200711235947 82 184 0.0 4.0 0.00 0.00 0.00 64 1007.1
20200711234950 82 211 0.0 1.0 0.00 0.00 0.00 67 1007.1
20200711233947 82 211 4.0 5.0 0.00 0.00 0.00 63 1007.1
20200711232947 83 169 0.0 2.0 0.00 0.00 0.00 64 1006.9
20200711231953 84 248 2.0 5.0 0.00 0.00 0.00 59 1006.8
20200711230947 84 251 1.0 2.0 0.00 0.00 0.00 60 1006.7
20200711225949 84 260 1.0 4.0 0.00 0.00 0.00 59 1006.6
20200711224947 85 309 1.0 6.0 0.00 0.00 0.00 58 1006.5
20200711223949 86 237 2.0 5.0 0.00 0.00 0.00 59 1006.5
20200711222948 86 11 2.0 5.0 0.00 0.00 0.00 64 1006.3
20200711221948 86 269 0.0 5.0 0.00 0.00 0.00 63 1006.1
20200711220947 85 9 1.0 4.0 0.00 0.00 0.00 65 1006.1
20200711215947 85 125 2.0 6.0 0.00 0.00 0.00 63 1005.8
20200711214947 86 213 0.0 6.0 0.00 0.00 0.00 61 1005.8
20200711213947 86 5 2.0 5.0 0.00 0.00 0.00 64 1005.7
20200711212947 86 14 2.0 6.0 0.00 0.00 0.00 63 1005.8
20200711211948 85 99 0.0 4.0 0.00 0.00 0.00 66 1005.9
20200711210948 85 74 1.0 4.0 0.00 0.00 0.00 67 1006.0
20200711205949 85 348 0.0 7.0 0.00 0.00 0.00 64 1006.0
20200711204948 85 301 5.0 7.0 0.00 0.00 0.00 64 1005.9
20200711203948 86 88 1.0 8.0 0.00 0.00 0.00 63 1005.9
20200711202948 87 130 1.0 9.0 0.00 0.00 0.00 59 1005.9
20200711201948 87 355 5.0 7.0 0.00 0.00 0.00 65 1005.9
20200711200948 88 355 2.0 7.0 0.00 0.00 0.00 67 1006.2
20200711195948 87 21 2.0 8.0 0.00 0.00 0.00 67 1006.2
20200711194948 88 263 1.0 5.0 0.00 0.00 0.00 65 1006.3
20200711193948 87 221 0.0 5.0 0.00 0.00 0.00 67 1006.1
20200711192948 88 173 0.0 7.0 0.00 0.00 0.00 68 1006.0
20200711191948 88 317 2.0 7.0 0.00 0.00 0.00 65 1006.1
20200711190948 88 12 2.0 6.0 0.00 0.00 0.00 70 1006.3
20200711185948 87 288 1.0 6.0 0.00 0.00 0.00 70 1006.3
20200711184948 88 76 0.0 5.0 0.00 0.00 0.00 70 1006.3
20200711183948 87 333 4.0 6.0 0.00 0.00 0.00 72 1006.4
20200711182948 86 288 2.0 6.0 0.00 0.00 0.00 71 1006.5
20200711181948 86 5 2.0 7.0 0.00 0.00 0.00 71 1006.6
20200711180949 86 355 2.0 4.0 0.00 0.00 0.00 71 1006.7
20200711175948 86 184 1.0 5.0 0.00 0.00 0.00 71 1006.8
20200711174948 86 287 1.0 6.0 0.00 0.00 0.00 71 1007.0
20200711173948 86 355 2.0 5.0 0.00 0.00 0.00 70 1007.2
20200711172949 86 279 0.0 6.0 0.00 0.00 0.00 72 1007.3
20200711171948 86 302 1.0 5.0 0.00 0.00 0.00 71 1007.5
20200711170949 85 327 1.0 4.0 0.00 0.00 0.00 74 1007.7
20200711165948 85 88 2.0 7.0 0.00 0.00 0.00 74 1007.8
20200711164948 84 293 1.0 7.0 0.00 0.00 0.00 76 1007.9
20200711163948 85 13 2.0 5.0 0.00 0.00 0.00 75 1008.0
20200711162948 84 33 0.0 4.0 0.00 0.00 0.00 76 1007.9
20200711161948 84 294 1.0 8.0 0.00 0.00 0.00 75 1008.1
20200711160950 84 266 3.0 4.0 0.00 0.00 0.00 79 1008.1
20200711155949 83 318 1.0 3.0 0.00 0.00 0.00 77 1008.1
20200711154949 83 211 0.0 5.0 0.00 0.00 0.00 80 1008.1